CZ-6A DEB, 54422

Orbit data source: Space-Track

CZ-6A DEB, 54422 is space debris in SSO originally from a launch on Fri, 11 Nov 2022 UTC launched from the Taiyaun Space Center, China (TSC). Debris objects in space refer to the collection of defunct objects orbiting the Earth. Examples of debris include non-operational satellites, rocket bodies, and fragments generated from explosions, collisions, or faulty payload assembly.

Loading next visibility...
Identifier
54422, 2022-151EW
Orbit
SSO
Country
Flag of CNCN / PRC
Related business
Manufacturer
SAST
Mission
Spacecraft
Bus & Motor
Unknown
Mass
Unknown
Launch date (UTC)
2022-11-11 (4 years ago)
Launch vehicle
Unknown
Launch site
Taiyaun Space Center, China (TSC)
Object type
Payload
Rocket body
Debris
Shape & HBR
Unknown shape, 0.5 m
Radar Cross Section
Medium (>0.1 m² and <1 m²)

Expand to show TLE details & history
Last TLE update: 18 hours ago

TLE from 18 hours ago
0 CZ-6A DEB
1 54422U 22151EW  26207.03162712  .00000652  00000-0  33928-3 0  9998
2 54422  98.8066 222.1994 0035818 242.4733 117.2800 14.17761400191130
Epoch: 2026-07-26T00:45Z
TLE epoch observation values (Epoch: 2026-07-26T00:45:32.583Z)
Latitude
-0.00004°
Longitude
-92.92175°
Altitude
847.755 km
Speed
7.423 km/s
True Right ascension
14h 48m 47s
True Declination
0° 00' 00"
Sunlit
Object was in daylight at epoch
Visualization orbit readout
Latitude
Unknown
Longitude
Unknown
Altitude
Unknown
Speed
Unknown
Apparent Right ascension
Unknown
Apparent Declination
Unknown
Sunlit
N/A
Visualization observer readout
Local Sidereal Time
07:55:25
Azimuth
Unknown
Elevation
Unknown
Doppler factor
Unknown
Orbital elements
Apogee altitude
855.918 km
Perigee altitude
804.281 km
Semi-major axis
7,208.237 km
Eccentricity
0.00358
Inclination
98.8066°
RAAN
222.1994°
Arg. of periapsis
242.4733°
True anomaly
117.64404°
Mean anomaly
117.28°
Eccentric anomaly
117.4621°
Mean motion
3.5465 °/min
Orbital period
101.51 mins
BSTAR
0.00033928
Loading maneuver chart data...
Computing Atmospheric mass density...
Loading historical data...
Loading historical data...
Loading historical data...
Loading historical data...
Loading historical data...
Loading historical data...
Loading historical data...

Documentation

Showing up to 5 results
|